Location: Ar Ranvel
(48.3000°N, 4.8833°W)
Time: 14:34:21
(UTC+00:00)

Cosmos 2100 Rocket - Pass Details

Date: 16 June 2021
Orbit: 955 x 1001 km, 82.9° (Epoch: 04 August)

Event Time Altitude Azimuth Distance (km) Brightness Sun altitude
Rises 21:39:40 0° 350° (N) 3,739 8.3 -9.8°
Reaches altitude 10° 21:42:13 10° 351° (N) 2,783 7.5 -10.1°
Maximum altitude 21:48:39 86° 82° (E) 1,006 4.1 -10.7°
Enters shadow 21:54:46 11° 171° (S) 2,668 5.7 -11.3°
